Find Starlink 32598

NORAD ID: 62046 Int'l Des: 2024-216 Owner: SPXS Country: US Constellation: starlink operational
LEOCIRCULAR

当前视图

正在加载3D地球...

关于 Starlink 32598

正在加载描述...

即将过境

Passes for default location (London). Set your location on the main map for personalized predictions.

高度历史

Loading altitude history...

两行轨道根数

1 62046U 24216Q 26150.43885530 .00031289 00000-0 11401-2 0 9995
2 62046 42.9990 154.1681 0003008 251.0281 109.0245 15.27624353 86383
Epoch: May 30, 2026 • Age: 15 hours

当前状态

高度 487.7 km
速度 7.63 km/s
星下点 42.39°N, 10.95°W
发射日期 Nov 21, 2024
运行时间 1.5 years
类型 internet

技术详情

分类 Payload
质量 730.00 kg
干质量 700.00 kg
总质量 730.00 kg
长度 0.30 m
直径 4.10 m
跨度 29.00 m
形状 Box + pan
制造商 SPXS
平台类型 Starlink V2M
阶段状态 In Orbit
所有者/国家 SPXS/US

Most Searched